Location: Big Prairie
(40.6673°N, 82.0952°W)
Time: 23:16:33
(UTC+00:00)

Meteor 1-26 Rocket - Pass Details

Date: 29 June 2022
Orbit: 810 x 925 km, 81.3° (Epoch: 07 August)

Event Time Altitude Azimuth Distance (km) Brightness Sun altitude
Rises 08:02:54 0° 340° (NNW) 3,465 7.9 -17.1°
Reaches altitude 10° 08:05:31 10° 331° (NNW) 2,541 7.0 -16.8°
Maximum altitude 08:10:38 33° 270° (W) 1,452 5.1 -16.2°
Enters shadow 08:13:07 24° 228° (SW) 1,781 5.3 -15.9°
